Time,TemperatureF,DewpointF,PressureIn,WindDirection,WindDirectionDegrees,WindSpeedMPH,WindSpeedGustMPH,Humidity,HourlyPrecipIn,Conditions,Clouds,dailyrainin,SoftwareType,DateUTC
2013-03-10 00:00:00,64.6,55.4,30.04,NE,45,4.0,4.0,72,0.00,,,0.00,meteohub,2013-03-10 05:00:00,
2013-03-10 00:01:00,64.9,55.8,30.04,NE,45,4.0,4.0,72,0.00,,,0.00,meteohub,2013-03-10 05:01:00,
2013-03-10 00:05:00,65.5,55.4,30.04,South,180,4.0,4.0,70,0.00,,,0.00,meteohub,2013-03-10 05:05:00,
2013-03-10 00:10:00,66.6,55.2,30.03,East,90,4.0,4.0,67,0.00,,,0.00,meteohub,2013-03-10 05:10:00,
2013-03-10 00:15:00,67.1,54.5,30.03,East,90,7.0,9.0,64,0.00,,,0.00,meteohub,2013-03-10 05:15:00,
2013-03-10 00:20:00,66.9,54.9,30.04,East,90,3.0,9.0,65,0.00,,,0.00,meteohub,2013-03-10 05:20:00,
2013-03-10 00:25:00,66.9,54.3,30.03,East,90,4.0,9.0,64,0.00,,,0.00,meteohub,2013-03-10 05:25:00,
2013-03-10 00:30:00,67.1,54.9,30.04,East,90,2.0,7.0,65,0.00,,,0.00,meteohub,2013-03-10 05:30:00,
2013-03-10 00:35:00,66.7,54.7,30.04,East,90,4.0,7.0,65,0.00,,,0.00,meteohub,2013-03-10 05:35:00,
2013-03-10 00:40:00,67.1,54.9,30.03,East,90,2.0,4.0,65,0.00,,,0.00,meteohub,2013-03-10 05:40:00,
2013-03-10 00:46:00,67.1,55.4,30.03,East,90,4.0,8.0,66,0.00,,,0.00,meteohub,2013-03-10 05:46:00,
2013-03-10 00:51:00,67.1,55.8,30.04,East,90,2.0,8.0,67,0.00,,,0.00,meteohub,2013-03-10 05:51:00,
2013-03-10 00:56:00,67.1,55.8,30.03,NE,45,5.0,8.0,67,0.00,,,0.00,meteohub,2013-03-10 05:56:00,
2013-03-10 01:01:00,67.3,55.9,30.03,East,90,2.0,8.0,67,0.00,,,0.00,meteohub,2013-03-10 06:01:00,
2013-03-10 01:06:00,67.1,55.4,30.03,East,90,3.0,8.0,66,0.00,,,0.00,meteohub,2013-03-10 06:06:00,
2013-03-10 01:11:00,66.9,55.2,30.03,East,90,1.0,8.0,66,0.00,,,0.00,meteohub,2013-03-10 06:11:00,
2013-03-10 01:16:00,66.7,55.0,30.02,East,90,4.0,6.0,66,0.00,,,0.00,meteohub,2013-03-10 06:16:00,
2013-03-10 01:21:00,66.6,54.9,30.01,NE,45,4.0,7.0,66,0.00,,,0.00,meteohub,2013-03-10 06:21:00,
2013-03-10 01:26:00,66.6,54.9,30.02,East,90,3.0,7.0,66,0.00,,,0.00,meteohub,2013-03-10 06:26:00,
2013-03-10 01:32:00,66.7,55.0,30.01,East,90,6.0,8.0,66,0.00,,,0.00,meteohub,2013-03-10 06:32:00,
2013-03-10 01:37:00,66.7,55.0,30.01,East,90,5.0,8.0,66,0.00,,,0.00,meteohub,2013-03-10 06:37:00,
2013-03-10 01:42:00,66.9,55.2,30.00,NE,45,8.0,8.0,66,0.00,,,0.00,meteohub,2013-03-10 06:42:00,
2013-03-10 01:47:00,66.9,55.2,30.00,East,90,7.0,8.0,66,0.00,,,0.00,meteohub,2013-03-10 06:47:00,
2013-03-10 01:52:00,66.9,55.6,29.99,SE,135,7.0,8.0,67,0.00,,,0.00,meteohub,2013-03-10 06:52:00,
2013-03-10 01:57:00,66.7,55.0,30.00,East,90,3.0,8.0,66,0.00,,,0.00,meteohub,2013-03-10 06:57:00,
2013-03-10 03:02:00,66.7,55.0,30.00,East,90,5.0,8.0,66,0.00,,,0.00,meteohub,2013-03-10 07:02:00,
2013-03-10 03:07:00,66.6,54.9,29.99,East,90,3.0,7.0,66,0.00,,,0.00,meteohub,2013-03-10 07:07:00,
2013-03-10 03:12:00,66.4,54.7,29.99,East,90,4.0,7.0,66,0.00,,,0.00,meteohub,2013-03-10 07:12:00,
2013-03-10 03:17:00,66.2,54.5,29.98,East,90,3.0,5.0,66,0.00,,,0.00,meteohub,2013-03-10 07:17:00,
2013-03-10 03:22:00,66.0,54.3,29.98,East,90,2.0,5.0,66,0.00,,,0.00,meteohub,2013-03-10 07:22:00,
2013-03-10 03:27:00,65.7,54.0,29.98,East,90,3.0,5.0,66,0.00,,,0.00,meteohub,2013-03-10 07:27:00,
2013-03-10 03:32:00,65.5,54.3,29.98,East,90,2.0,4.0,67,0.00,,,0.00,meteohub,2013-03-10 07:32:00,
2013-03-10 03:37:00,65.3,54.1,29.98,East,90,3.0,4.0,67,0.00,,,0.00,meteohub,2013-03-10 07:37:00,
2013-03-10 03:42:00,65.3,54.5,29.98,East,90,1.0,4.0,68,0.00,,,0.00,meteohub,2013-03-10 07:42:00,
2013-03-10 03:47:00,64.9,54.1,29.98,East,90,1.0,3.0,68,0.00,,,0.00,meteohub,2013-03-10 07:47:00,
2013-03-10 03:52:00,64.6,54.1,29.98,East,90,0.0,3.0,69,0.00,,,0.00,meteohub,2013-03-10 07:52:00,
2013-03-10 03:57:00,64.2,54.3,29.98,East,90,1.0,2.0,70,0.00,,,0.00,meteohub,2013-03-10 07:57:00,
2013-03-10 04:02:00,64.0,54.5,29.98,East,90,0.0,2.0,71,0.00,,,0.00,meteohub,2013-03-10 08:02:00,
2013-03-10 04:07:00,63.9,54.7,29.98,East,90,0.0,1.0,72,0.00,,,0.00,meteohub,2013-03-10 08:07:00,
2013-03-10 04:12:00,63.9,54.7,29.98,East,90,0.0,1.0,72,0.00,,,0.00,meteohub,2013-03-10 08:12:00,
2013-03-10 04:17:00,63.7,54.5,29.98,East,90,0.0,0.0,72,0.00,,,0.00,meteohub,2013-03-10 08:17:00,
2013-03-10 04:22:00,63.9,55.0,29.98,SE,135,2.0,2.0,73,0.00,,,0.00,meteohub,2013-03-10 08:22:00,
2013-03-10 04:27:00,64.2,55.4,29.97,East,90,3.0,3.0,73,0.00,,,0.00,meteohub,2013-03-10 08:27:00,
2013-03-10 04:32:00,65.1,55.9,29.98,NE,45,4.0,4.0,72,0.00,,,0.00,meteohub,2013-03-10 08:32:00,
2013-03-10 04:37:00,66.0,55.6,29.97,SE,135,4.0,7.0,69,0.00,,,0.00,meteohub,2013-03-10 08:37:00,
2013-03-10 04:42:00,66.4,55.6,29.98,East,90,4.0,7.0,68,0.00,,,0.00,meteohub,2013-03-10 08:42:00,
2013-03-10 04:47:00,66.4,55.0,29.98,East,90,4.0,8.0,67,0.00,,,0.00,meteohub,2013-03-10 08:47:00,
2013-03-10 04:52:00,66.2,54.9,29.97,East,90,2.0,8.0,67,0.00,,,0.00,meteohub,2013-03-10 08:52:00,
2013-03-10 04:57:00,66.0,54.7,29.97,East,90,4.0,8.0,67,0.00,,,0.00,meteohub,2013-03-10 08:57:00,
2013-03-10 05:02:00,65.8,54.5,29.97,SE,135,5.0,7.0,67,0.00,,,0.00,meteohub,2013-03-10 09:02:00,
2013-03-10 05:07:00,65.7,54.3,29.96,East,90,2.0,6.0,67,0.00,,,0.00,meteohub,2013-03-10 09:07:00,
2013-03-10 05:12:00,65.8,54.5,29.96,NE,45,4.0,6.0,67,0.00,,,0.00,meteohub,2013-03-10 09:12:00,
2013-03-10 05:17:00,65.8,54.5,29.97,East,90,4.0,6.0,67,0.00,,,0.00,meteohub,2013-03-10 09:17:00,
2013-03-10 05:22:00,65.5,54.3,29.98,East,90,2.0,6.0,67,0.00,,,0.00,meteohub,2013-03-10 09:22:00,
2013-03-10 05:27:00,65.5,54.3,29.98,East,90,2.0,4.0,67,0.00,,,0.00,meteohub,2013-03-10 09:27:00,
2013-03-10 05:32:00,65.5,54.7,29.99,East,90,0.0,4.0,68,0.00,,,0.00,meteohub,2013-03-10 09:32:00,
2013-03-10 05:37:00,65.1,54.3,29.99,East,90,0.0,3.0,68,0.00,,,0.00,meteohub,2013-03-10 09:37:00,
2013-03-10 05:42:00,64.8,54.3,29.99,East,90,0.0,2.0,69,0.00,,,0.00,meteohub,2013-03-10 09:42:00,
2013-03-10 05:47:00,64.4,54.3,30.00,SE,135,0.0,2.0,70,0.00,,,0.00,meteohub,2013-03-10 09:47:00,
2013-03-10 05:52:00,64.4,54.3,30.00,SE,135,0.0,1.0,70,0.00,,,0.00,meteohub,2013-03-10 09:52:00,
2013-03-10 05:57:00,64.4,54.9,30.00,SE,135,0.0,1.0,71,0.00,,,0.00,meteohub,2013-03-10 09:57:00,
2013-03-10 06:02:00,64.2,55.0,29.99,SE,135,0.0,1.0,72,0.00,,,0.00,meteohub,2013-03-10 10:02:00,
2013-03-10 06:07:00,64.2,55.4,29.99,SE,135,0.0,0.0,73,0.00,,,0.00,meteohub,2013-03-10 10:07:00,
2013-03-10 06:12:00,64.2,55.4,29.99,SE,135,0.0,0.0,73,0.00,,,0.00,meteohub,2013-03-10 10:12:00,
2013-03-10 06:17:00,64.4,55.9,29.99,SE,135,3.0,3.0,74,0.00,,,0.00,meteohub,2013-03-10 10:17:00,
2013-03-10 06:22:00,65.3,56.5,29.99,East,90,4.0,4.0,73,0.00,,,0.00,meteohub,2013-03-10 10:22:00,
2013-03-10 06:27:00,66.0,56.3,29.98,SE,135,7.0,7.0,71,0.00,,,0.00,meteohub,2013-03-10 10:27:00,
2013-03-10 06:32:00,66.6,56.8,29.99,East,90,4.0,7.0,71,0.00,,,0.00,meteohub,2013-03-10 10:32:00,
2013-03-10 06:37:00,66.7,56.7,29.98,East,90,8.0,8.0,70,0.00,,,0.00,meteohub,2013-03-10 10:37:00,
2013-03-10 06:42:00,66.7,56.3,29.98,NE,45,4.0,8.0,69,0.00,,,0.00,meteohub,2013-03-10 10:42:00,
2013-03-10 06:47:00,67.1,56.1,29.99,East,90,4.0,8.0,68,0.00,,,0.00,meteohub,2013-03-10 10:47:00,
2013-03-10 06:52:00,66.9,55.9,29.99,North,0,3.0,8.0,68,0.00,,,0.00,meteohub,2013-03-10 10:52:00,
2013-03-10 06:57:00,66.7,55.8,29.99,North,0,2.0,8.0,68,0.00,,,0.00,meteohub,2013-03-10 10:57:00,
2013-03-10 07:02:00,66.4,55.6,29.99,East,90,3.0,8.0,68,0.00,,,0.00,meteohub,2013-03-10 11:02:00,
2013-03-10 07:07:00,66.2,55.4,30.00,East,90,1.0,8.0,68,0.00,,,0.00,meteohub,2013-03-10 11:07:00,
2013-03-10 07:12:00,65.8,55.0,30.00,East,90,3.0,8.0,68,0.00,,,0.00,meteohub,2013-03-10 11:12:00,
2013-03-10 07:17:00,65.5,54.7,29.99,East,90,2.0,4.0,68,0.00,,,0.00,meteohub,2013-03-10 11:17:00,
2013-03-10 07:22:00,65.3,54.9,29.99,NE,45,5.0,5.0,69,0.00,,,0.00,meteohub,2013-03-10 11:22:00,
2013-03-10 07:27:00,65.3,54.9,29.99,East,90,2.0,5.0,69,0.00,,,0.00,meteohub,2013-03-10 11:27:00,
2013-03-10 07:32:00,65.5,55.0,30.00,East,90,3.0,5.0,69,0.00,,,0.00,meteohub,2013-03-10 11:32:00,
2013-03-10 07:37:00,65.5,55.4,30.00,East,90,1.0,5.0,70,0.00,,,0.00,meteohub,2013-03-10 11:37:00,
2013-03-10 07:42:00,65.5,55.4,30.00,NE,45,2.0,4.0,70,0.00,,,0.00,meteohub,2013-03-10 11:42:00,
2013-03-10 07:47:00,65.7,55.2,30.00,East,90,5.0,5.0,69,0.00,,,0.00,meteohub,2013-03-10 11:47:00,
2013-03-10 07:52:00,65.8,55.4,30.00,East,90,2.0,5.0,69,0.00,,,0.00,meteohub,2013-03-10 11:52:00,
2013-03-10 07:57:00,66.2,55.4,30.00,East,90,2.0,5.0,68,0.00,,,0.00,meteohub,2013-03-10 11:57:00,
2013-03-10 08:02:00,66.4,55.6,30.01,East,90,2.0,6.0,68,0.00,,,0.00,meteohub,2013-03-10 12:02:00,
2013-03-10 08:07:00,66.6,55.6,30.01,East,90,2.0,6.0,68,0.00,,,0.00,meteohub,2013-03-10 12:07:00,
2013-03-10 08:12:00,67.1,55.8,30.01,East,90,3.0,6.0,67,0.00,,,0.00,meteohub,2013-03-10 12:12:00,
2013-03-10 08:17:00,67.5,55.8,30.01,NE,45,4.0,7.0,66,0.00,,,0.00,meteohub,2013-03-10 12:17:00,
2013-03-10 08:22:00,67.5,55.8,30.02,East,90,2.0,7.0,66,0.00,,,0.00,meteohub,2013-03-10 12:22:00,
2013-03-10 08:27:00,67.6,55.9,30.01,East,90,4.0,7.0,66,0.00,,,0.00,meteohub,2013-03-10 12:27:00,
2013-03-10 08:32:00,67.6,55.9,30.01,NE,45,1.0,4.0,66,0.00,,,0.00,meteohub,2013-03-10 12:32:00,
2013-03-10 08:37:00,67.8,55.6,30.01,East,90,2.0,4.0,65,0.00,,,0.00,meteohub,2013-03-10 12:37:00,
2013-03-10 08:42:00,68.0,55.4,30.01,East,90,6.0,6.0,64,0.00,,,0.00,meteohub,2013-03-10 12:42:00,
2013-03-10 08:47:00,68.7,55.6,30.02,North,0,3.0,6.0,63,0.00,,,0.00,meteohub,2013-03-10 12:47:00,
2013-03-10 08:53:00,68.9,55.8,30.02,East,90,2.0,6.0,63,0.00,,,0.00,meteohub,2013-03-10 12:53:00,
2013-03-10 08:58:00,70.2,56.5,30.02,East,90,4.0,8.0,62,0.00,,,0.00,meteohub,2013-03-10 12:58:00,
2013-03-10 09:03:00,72.0,56.8,30.02,NE,45,2.0,8.0,59,0.00,,,0.00,meteohub,2013-03-10 13:03:00,
2013-03-10 09:08:00,73.0,56.5,30.02,NE,45,4.0,7.0,56,0.00,,,0.00,meteohub,2013-03-10 13:08:00,
2013-03-10 09:13:00,72.1,55.0,30.02,East,90,5.0,7.0,55,0.00,,,0.00,meteohub,2013-03-10 13:13:00,
2013-03-10 09:18:00,70.5,55.0,30.02,East,90,4.0,8.0,58,0.00,,,0.00,meteohub,2013-03-10 13:18:00,
2013-03-10 09:23:00,71.6,56.5,30.03,East,90,5.0,8.0,59,0.00,,,0.00,meteohub,2013-03-10 13:23:00,
2013-03-10 09:28:00,73.6,56.5,30.02,North,0,2.0,8.0,55,0.00,,,0.00,meteohub,2013-03-10 13:28:00,
2013-03-10 09:33:00,75.0,56.1,30.02,East,90,7.0,11.0,52,0.00,,,0.00,meteohub,2013-03-10 13:33:00,
2013-03-10 09:38:00,73.0,55.4,30.03,North,0,4.0,11.0,54,0.00,,,0.00,meteohub,2013-03-10 13:38:00,
2013-03-10 09:44:00,72.9,55.2,30.02,NE,45,8.0,11.0,54,0.00,,,0.00,meteohub,2013-03-10 13:44:00,
2013-03-10 09:49:00,73.4,54.7,30.02,East,90,7.0,11.0,52,0.00,,,0.00,meteohub,2013-03-10 13:49:00,
2013-03-10 09:54:00,74.8,55.0,30.03,South,180,7.0,11.0,50,0.00,,,0.00,meteohub,2013-03-10 13:54:00,
2013-03-10 09:59:00,74.1,55.9,30.02,SE,135,10.0,11.0,53,0.00,,,0.00,meteohub,2013-03-10 13:59:00,
2013-03-10 10:04:00,74.3,56.7,30.03,NE,45,4.0,11.0,54,0.00,,,0.00,meteohub,2013-03-10 14:04:00,
2013-03-10 10:09:00,75.4,55.9,30.03,NE,45,8.0,11.0,51,0.00,,,0.00,meteohub,2013-03-10 14:09:00,
2013-03-10 10:14:00,74.5,56.3,30.03,East,90,10.0,11.0,53,0.00,,,0.00,meteohub,2013-03-10 14:14:00,
2013-03-10 10:20:00,73.8,56.1,30.03,East,90,10.0,11.0,54,0.00,,,0.00,meteohub,2013-03-10 14:20:00,
2013-03-10 10:25:00,74.3,56.1,30.03,SE,135,11.0,15.0,53,0.00,,,0.00,meteohub,2013-03-10 14:25:00,
2013-03-10 10:30:00,73.8,56.7,30.03,North,0,8.0,15.0,55,0.00,,,0.00,meteohub,2013-03-10 14:30:00,
2013-03-10 10:35:00,74.3,56.7,30.03,North,0,5.0,12.0,54,0.00,,,0.00,meteohub,2013-03-10 14:35:00,
2013-03-10 10:40:00,73.6,55.9,30.03,East,90,11.0,12.0,54,0.00,,,0.00,meteohub,2013-03-10 14:40:00,
2013-03-10 10:45:00,73.9,56.8,30.03,NE,45,7.0,13.0,55,0.00,,,0.00,meteohub,2013-03-10 14:45:00,
2013-03-10 10:51:00,75.2,56.8,30.02,NE,45,8.0,13.0,53,0.00,,,0.00,meteohub,2013-03-10 14:51:00,
2013-03-10 10:56:00,74.8,56.5,30.03,East,90,10.0,13.0,53,0.00,,,0.00,meteohub,2013-03-10 14:56:00,
2013-03-10 11:01:00,75.4,57.0,30.03,East,90,8.0,11.0,53,0.00,,,0.00,meteohub,2013-03-10 15:01:00,
2013-03-10 11:06:00,75.6,56.7,30.02,NE,45,4.0,11.0,52,0.00,,,0.00,meteohub,2013-03-10 15:06:00,
2013-03-10 11:11:00,76.1,57.2,30.02,East,90,17.0,17.0,52,0.00,,,0.00,meteohub,2013-03-10 15:11:00,
2013-03-10 11:16:00,76.1,57.2,30.02,East,90,8.0,17.0,52,0.00,,,0.00,meteohub,2013-03-10 15:16:00,
2013-03-10 11:21:00,74.7,56.5,30.02,East,90,6.0,17.0,53,0.00,,,0.00,meteohub,2013-03-10 15:21:00,
2013-03-10 11:26:00,73.9,56.8,30.02,East,90,8.0,17.0,55,0.00,,,0.00,meteohub,2013-03-10 15:26:00,
2013-03-10 11:32:00,74.5,57.2,30.02,SE,135,7.0,15.0,55,0.00,,,0.00,meteohub,2013-03-10 15:32:00,
2013-03-10 11:37:00,73.9,56.8,30.02,East,90,9.0,11.0,55,0.00,,,0.00,meteohub,2013-03-10 15:37:00,
2013-03-10 11:42:00,74.1,56.8,30.02,East,90,6.0,15.0,55,0.00,,,0.00,meteohub,2013-03-10 15:42:00,
2013-03-10 11:47:00,73.9,56.8,30.03,East,90,11.0,17.0,55,0.00,,,0.00,meteohub,2013-03-10 15:47:00,
2013-03-10 11:52:00,74.3,57.6,30.02,NE,45,4.0,17.0,56,0.00,,,0.00,meteohub,2013-03-10 15:52:00,
2013-03-10 11:57:00,74.8,57.6,30.02,East,90,9.0,17.0,55,0.00,,,0.00,meteohub,2013-03-10 15:57:00,
2013-03-10 12:02:00,75.0,57.2,30.02,East,90,4.0,13.0,54,0.00,,,0.00,meteohub,2013-03-10 16:02:00,
2013-03-10 12:07:00,76.6,58.3,30.02,SE,135,3.0,13.0,53,0.00,,,0.00,meteohub,2013-03-10 16:07:00,
2013-03-10 12:12:00,76.1,57.7,30.03,East,90,11.0,13.0,53,0.00,,,0.00,meteohub,2013-03-10 16:12:00,
2013-03-10 12:17:00,75.6,57.7,30.03,East,90,10.0,11.0,54,0.00,,,0.00,meteohub,2013-03-10 16:17:00,
2013-03-10 12:22:00,74.3,57.0,30.03,NE,45,7.0,11.0,55,0.00,,,0.00,meteohub,2013-03-10 16:22:00,
2013-03-10 12:27:00,75.4,58.1,30.02,East,90,8.0,16.0,55,0.00,,,0.00,meteohub,2013-03-10 16:27:00,
2013-03-10 12:32:00,75.0,56.7,30.03,East,90,11.0,16.0,53,0.00,,,0.00,meteohub,2013-03-10 16:32:00,
2013-03-10 12:37:00,74.1,57.4,30.03,East,90,10.0,16.0,56,0.00,,,0.00,meteohub,2013-03-10 16:37:00,
2013-03-10 12:42:00,73.8,57.0,30.03,North,0,11.0,12.0,56,0.00,,,0.00,meteohub,2013-03-10 16:42:00,
2013-03-10 12:47:00,75.6,58.3,30.02,East,90,9.0,12.0,55,0.00,,,0.00,meteohub,2013-03-10 16:47:00,
2013-03-10 12:52:00,75.2,57.4,30.02,East,90,10.0,12.0,54,0.00,,,0.00,meteohub,2013-03-10 16:52:00,
2013-03-10 12:58:00,74.1,56.8,30.02,East,90,9.0,12.0,55,0.00,,,0.00,meteohub,2013-03-10 16:58:00,
2013-03-10 13:03:00,75.2,56.8,30.01,East,90,13.0,15.0,53,0.00,,,0.00,meteohub,2013-03-10 17:03:00,
2013-03-10 13:08:00,74.8,56.5,30.01,SE,135,5.0,17.0,53,0.00,,,0.00,meteohub,2013-03-10 17:08:00,
2013-03-10 13:13:00,74.1,56.8,30.01,East,90,8.0,17.0,55,0.00,,,0.00,meteohub,2013-03-10 17:13:00,
2013-03-10 13:18:00,74.1,56.8,30.00,East,90,11.0,17.0,55,0.00,,,0.00,meteohub,2013-03-10 17:18:00,
2013-03-10 13:24:00,74.3,57.0,30.00,NE,45,8.0,13.0,55,0.00,,,0.00,meteohub,2013-03-10 17:24:00,
2013-03-10 13:29:00,75.0,56.7,30.00,East,90,10.0,13.0,53,0.00,,,0.00,meteohub,2013-03-10 17:29:00,
2013-03-10 13:34:00,75.7,57.4,30.00,North,0,5.0,13.0,53,0.00,,,0.00,meteohub,2013-03-10 17:34:00,
2013-03-10 13:39:00,75.6,57.2,30.00,East,90,16.0,16.0,53,0.00,,,0.00,meteohub,2013-03-10 17:39:00,
2013-03-10 13:44:00,74.5,57.2,30.00,SE,135,4.0,13.0,55,0.00,,,0.00,meteohub,2013-03-10 17:44:00,
2013-03-10 13:49:00,75.0,57.2,29.99,North,0,3.0,16.0,54,0.00,,,0.00,meteohub,2013-03-10 17:49:00,
2013-03-10 13:54:00,74.8,57.0,29.99,East,90,9.0,16.0,54,0.00,,,0.00,meteohub,2013-03-10 17:54:00,
2013-03-10 14:00:00,75.4,58.1,29.98,East,90,12.0,15.0,55,0.00,,,0.00,meteohub,2013-03-10 18:00:00,
2013-03-10 14:05:00,76.1,58.3,29.98,East,90,11.0,13.0,54,0.00,,,0.00,meteohub,2013-03-10 18:05:00,
2013-03-10 14:10:00,76.6,58.3,29.98,East,90,7.0,16.0,53,0.00,,,0.00,meteohub,2013-03-10 18:10:00,
2013-03-10 14:15:00,75.9,57.6,29.97,SE,135,15.0,16.0,53,0.00,,,0.00,meteohub,2013-03-10 18:15:00,
2013-03-10 14:20:00,74.7,57.4,29.97,East,90,11.0,19.0,55,0.00,,,0.00,meteohub,2013-03-10 18:20:00,
2013-03-10 14:25:00,75.2,57.9,29.97,North,0,5.0,19.0,55,0.00,,,0.00,meteohub,2013-03-10 18:25:00,
2013-03-10 14:31:00,75.7,57.9,29.97,East,90,12.0,19.0,54,0.00,,,0.00,meteohub,2013-03-10 18:31:00,
2013-03-10 14:36:00,75.7,58.5,29.97,SE,135,8.0,15.0,55,0.00,,,0.00,meteohub,2013-03-10 18:36:00,
2013-03-10 14:41:00,76.3,59.0,29.97,East,90,14.0,16.0,55,0.00,,,0.00,meteohub,2013-03-10 18:41:00,
2013-03-10 14:46:00,76.6,58.8,29.96,East,90,13.0,16.0,54,0.00,,,0.00,meteohub,2013-03-10 18:46:00,
2013-03-10 14:51:00,77.2,59.2,29.96,NE,45,7.0,15.0,54,0.00,,,0.00,meteohub,2013-03-10 18:51:00,
2013-03-10 14:56:00,77.2,58.3,29.96,NE,45,10.0,15.0,52,0.00,,,0.00,meteohub,2013-03-10 18:56:00,
2013-03-10 15:01:00,76.1,58.3,29.97,ESE,113,15.0,15.0,54,0.00,,,0.00,meteohub,2013-03-10 19:01:00,
2013-03-10 15:07:00,75.4,58.6,29.97,East,90,8.0,20.0,56,0.00,,,0.00,meteohub,2013-03-10 19:07:00,
2013-03-10 15:12:00,75.4,58.1,29.96,SE,135,9.0,20.0,55,0.00,,,0.00,meteohub,2013-03-10 19:12:00,
2013-03-10 15:17:00,75.0,57.7,29.96,East,90,10.0,17.0,55,0.00,,,0.00,meteohub,2013-03-10 19:17:00,
2013-03-10 15:22:00,75.2,59.0,29.96,NW,315,5.0,17.0,57,0.00,,,0.00,meteohub,2013-03-10 19:22:00,
2013-03-10 15:27:00,75.7,58.5,29.97,East,90,16.0,17.0,55,0.00,,,0.00,meteohub,2013-03-10 19:27:00,
2013-03-10 15:32:00,74.8,59.0,29.97,East,90,5.0,16.0,58,0.00,,,0.00,meteohub,2013-03-10 19:32:00,
2013-03-10 15:37:00,75.0,59.2,29.96,NE,45,15.0,16.0,58,0.00,,,0.00,meteohub,2013-03-10 19:37:00,
2013-03-10 15:42:00,75.6,59.2,29.96,East,90,11.0,16.0,57,0.00,,,0.00,meteohub,2013-03-10 19:42:00,
2013-03-10 15:47:00,75.0,59.2,29.96,East,90,4.0,15.0,58,0.00,,,0.00,meteohub,2013-03-10 19:47:00,
2013-03-10 15:52:00,76.3,59.0,29.96,ESE,113,10.0,15.0,55,0.00,,,0.00,meteohub,2013-03-10 19:52:00,
2013-03-10 15:57:00,75.2,59.9,29.96,East,90,11.0,13.0,59,0.00,,,0.00,meteohub,2013-03-10 19:57:00,
2013-03-10 16:02:00,75.2,59.4,29.96,East,90,12.0,12.0,58,0.00,,,0.00,meteohub,2013-03-10 20:02:00,
2013-03-10 16:07:00,75.6,59.2,29.96,East,90,5.0,15.0,57,0.00,,,0.00,meteohub,2013-03-10 20:07:00,
2013-03-10 16:13:00,75.9,59.5,29.95,East,90,8.0,15.0,57,0.00,,,0.00,meteohub,2013-03-10 20:13:00,
2013-03-10 16:18:00,74.5,59.7,29.95,East,90,8.0,15.0,60,0.00,,,0.00,meteohub,2013-03-10 20:18:00,
2013-03-10 16:23:00,75.2,60.4,29.95,East,90,11.0,15.0,60,0.00,,,0.00,meteohub,2013-03-10 20:23:00,
2013-03-10 16:28:00,74.7,60.3,29.95,NE,45,6.0,15.0,61,0.00,,,0.00,meteohub,2013-03-10 20:28:00,
2013-03-10 16:34:00,73.9,60.1,29.95,NE,45,6.0,15.0,62,0.00,,,0.00,meteohub,2013-03-10 20:34:00,
2013-03-10 16:39:00,74.3,60.4,29.94,NE,45,5.0,15.0,62,0.00,,,0.00,meteohub,2013-03-10 20:39:00,
2013-03-10 16:44:00,74.1,59.4,29.94,East,90,11.0,13.0,60,0.00,,,0.00,meteohub,2013-03-10 20:44:00,
2013-03-10 16:49:00,73.4,59.2,29.95,East,90,9.0,13.0,61,0.00,,,0.00,meteohub,2013-03-10 20:49:00,
2013-03-10 16:54:00,73.0,59.2,29.95,NE,45,8.0,13.0,62,0.00,,,0.00,meteohub,2013-03-10 20:54:00,
2013-03-10 16:59:00,73.8,59.5,29.95,East,90,11.0,13.0,61,0.00,,,0.00,meteohub,2013-03-10 20:59:00,
2013-03-10 17:05:00,74.7,59.9,29.94,SE,135,6.0,14.0,60,0.00,,,0.00,meteohub,2013-03-10 21:05:00,
2013-03-10 17:10:00,75.0,58.8,29.95,East,90,9.0,14.0,57,0.00,,,0.00,meteohub,2013-03-10 21:10:00,
2013-03-10 17:15:00,75.0,58.3,29.95,East,90,12.0,14.0,56,0.00,,,0.00,meteohub,2013-03-10 21:15:00,
2013-03-10 17:20:00,73.9,58.3,29.95,ESE,113,12.0,15.0,58,0.00,,,0.00,meteohub,2013-03-10 21:20:00,
2013-03-10 17:25:00,73.8,58.1,29.96,East,90,8.0,15.0,58,0.00,,,0.00,meteohub,2013-03-10 21:25:00,
2013-03-10 17:30:00,74.7,57.9,29.95,East,90,8.0,12.0,56,0.00,,,0.00,meteohub,2013-03-10 21:30:00,
2013-03-10 17:35:00,73.4,58.3,29.95,East,90,8.0,12.0,59,0.00,,,0.00,meteohub,2013-03-10 21:35:00,
2013-03-10 17:41:00,74.1,58.5,29.96,ESE,113,11.0,12.0,58,0.00,,,0.00,meteohub,2013-03-10 21:41:00,
2013-03-10 17:46:00,73.8,58.1,29.95,ESE,113,9.0,12.0,58,0.00,,,0.00,meteohub,2013-03-10 21:46:00,
2013-03-10 17:51:00,74.5,58.3,29.96,NE,45,9.0,12.0,57,0.00,,,0.00,meteohub,2013-03-10 21:51:00,
2013-03-10 17:56:00,75.4,58.1,29.96,East,90,9.0,12.0,55,0.00,,,0.00,meteohub,2013-03-10 21:56:00,
2013-03-10 18:02:00,76.5,58.1,29.95,SE,135,5.0,13.0,53,0.00,,,0.00,meteohub,2013-03-10 22:02:00,
2013-03-10 18:07:00,76.8,59.0,29.95,East,90,10.0,13.0,54,0.00,,,0.00,meteohub,2013-03-10 22:07:00,
2013-03-10 18:12:00,77.0,58.6,29.95,East,90,9.0,10.0,53,0.00,,,0.00,meteohub,2013-03-10 22:12:00,
2013-03-10 18:17:00,77.0,58.1,29.95,East,90,8.0,10.0,52,0.00,,,0.00,meteohub,2013-03-10 22:17:00,
2013-03-10 18:22:00,76.6,57.7,29.95,NE,45,9.0,11.0,52,0.00,,,0.00,meteohub,2013-03-10 22:22:00,
2013-03-10 18:27:00,76.5,58.1,29.96,ESE,113,11.0,11.0,53,0.00,,,0.00,meteohub,2013-03-10 22:27:00,
2013-03-10 18:32:00,75.7,57.4,29.95,NE,45,3.0,11.0,53,0.00,,,0.00,meteohub,2013-03-10 22:32:00,
2013-03-10 18:37:00,75.0,56.7,29.96,East,90,8.0,13.0,53,0.00,,,0.00,meteohub,2013-03-10 22:37:00,
2013-03-10 18:43:00,73.4,57.2,29.96,East,90,11.0,13.0,57,0.00,,,0.00,meteohub,2013-03-10 22:43:00,
2013-03-10 18:48:00,72.5,56.8,29.96,North,0,10.0,14.0,58,0.00,,,0.00,meteohub,2013-03-10 22:48:00,
2013-03-10 18:53:00,72.3,56.7,29.96,East,90,12.0,14.0,58,0.00,,,0.00,meteohub,2013-03-10 22:53:00,
2013-03-10 18:59:00,72.5,57.7,29.96,NE,45,6.0,14.0,60,0.00,,,0.00,meteohub,2013-03-10 22:59:00,
2013-03-10 19:04:00,72.1,57.6,29.96,East,90,4.0,12.0,60,0.00,,,0.00,meteohub,2013-03-10 23:04:00,
2013-03-10 19:09:00,71.6,57.4,29.96,East,90,8.0,12.0,61,0.00,,,0.00,meteohub,2013-03-10 23:09:00,
2013-03-10 19:15:00,71.2,57.9,29.95,East,90,7.0,11.0,63,0.00,,,0.00,meteohub,2013-03-10 23:15:00,
2013-03-10 19:20:00,71.1,57.7,29.95,NE,45,8.0,10.0,63,0.00,,,0.00,meteohub,2013-03-10 23:20:00,
2013-03-10 19:25:00,70.9,57.7,29.95,East,90,3.0,9.0,63,0.00,,,0.00,meteohub,2013-03-10 23:25:00,
2013-03-10 19:30:00,70.5,57.7,29.96,ESE,113,4.0,9.0,64,0.00,,,0.00,meteohub,2013-03-10 23:30:00,
2013-03-10 19:36:00,70.3,57.6,29.96,East,90,8.0,9.0,64,0.00,,,0.00,meteohub,2013-03-10 23:36:00,
2013-03-10 19:41:00,70.2,57.0,29.96,East,90,3.0,9.0,63,0.00,,,0.00,meteohub,2013-03-10 23:41:00,
2013-03-10 19:46:00,70.0,57.2,29.96,NE,45,6.0,8.0,64,0.00,,,0.00,meteohub,2013-03-10 23:46:00,
2013-03-10 19:51:00,70.0,57.2,29.96,East,90,3.0,8.0,64,0.00,,,0.00,meteohub,2013-03-10 23:51:00,
2013-03-10 19:56:00,70.0,57.7,29.96,NE,45,4.0,6.0,65,0.00,,,0.00,meteohub,2013-03-10 23:56:00,
2013-03-10 20:02:00,70.3,58.1,29.96,East,90,7.0,7.0,65,0.00,,,0.00,meteohub,2013-03-11 00:02:00,
2013-03-10 20:07:00,70.3,57.6,29.96,NE,45,8.0,11.0,64,0.00,,,0.00,meteohub,2013-03-11 00:07:00,
2013-03-10 20:12:00,70.3,57.6,29.96,East,90,6.0,11.0,64,0.00,,,0.00,meteohub,2013-03-11 00:12:00,
2013-03-10 20:17:00,70.3,58.1,29.96,East,90,9.0,9.0,65,0.00,,,0.00,meteohub,2013-03-11 00:17:00,
2013-03-10 20:22:00,70.2,57.9,29.96,East,90,8.0,9.0,65,0.00,,,0.00,meteohub,2013-03-11 00:22:00,
2013-03-10 20:27:00,70.2,58.3,29.96,East,90,4.0,9.0,66,0.00,,,0.00,meteohub,2013-03-11 00:27:00,
2013-03-10 20:32:00,70.2,58.3,29.96,East,90,7.0,9.0,66,0.00,,,0.00,meteohub,2013-03-11 00:32:00,
2013-03-10 20:37:00,70.2,58.3,29.96,East,90,4.0,9.0,66,0.00,,,0.00,meteohub,2013-03-11 00:37:00,
2013-03-10 20:42:00,70.2,58.3,29.96,East,90,4.0,8.0,66,0.00,,,0.00,meteohub,2013-03-11 00:42:00,
2013-03-10 20:47:00,70.2,58.6,29.96,East,90,4.0,8.0,67,0.00,,,0.00,meteohub,2013-03-11 00:47:00,
2013-03-10 20:53:00,70.2,58.6,29.97,East,90,3.0,7.0,67,0.00,,,0.00,meteohub,2013-03-11 00:53:00,
2013-03-10 20:58:00,70.0,58.5,29.97,East,90,2.0,6.0,67,0.00,,,0.00,meteohub,2013-03-11 00:58:00,
2013-03-10 21:03:00,70.0,59.0,29.97,East,90,5.0,6.0,68,0.00,,,0.00,meteohub,2013-03-11 01:03:00,
2013-03-10 21:08:00,70.2,59.2,29.97,East,90,5.0,8.0,68,0.00,,,0.00,meteohub,2013-03-11 01:08:00,
2013-03-10 21:14:00,70.0,59.0,29.97,NE,45,3.0,8.0,68,0.00,,,0.00,meteohub,2013-03-11 01:14:00,
2013-03-10 21:19:00,69.8,58.8,29.98,East,90,4.0,8.0,68,0.00,,,0.00,meteohub,2013-03-11 01:19:00,
2013-03-10 21:24:00,69.8,58.8,29.98,East,90,2.0,8.0,68,0.00,,,0.00,meteohub,2013-03-11 01:24:00,
2013-03-10 21:30:00,69.6,58.6,29.98,East,90,2.0,8.0,68,0.00,,,0.00,meteohub,2013-03-11 01:30:00,
2013-03-10 21:35:00,69.6,58.6,29.99,East,90,4.0,8.0,68,0.00,,,0.00,meteohub,2013-03-11 01:35:00,
2013-03-10 21:40:00,69.6,59.0,29.99,East,90,2.0,8.0,69,0.00,,,0.00,meteohub,2013-03-11 01:40:00,
2013-03-10 21:45:00,69.4,58.8,29.99,East,90,3.0,8.0,69,0.00,,,0.00,meteohub,2013-03-11 01:45:00,
2013-03-10 21:50:00,69.3,59.0,29.99,NE,45,4.0,4.0,70,0.00,,,0.00,meteohub,2013-03-11 01:50:00,
2013-03-10 21:55:00,69.3,59.0,29.99,NE,45,2.0,5.0,70,0.00,,,0.00,meteohub,2013-03-11 01:55:00,
2013-03-10 22:01:00,69.3,59.0,29.99,SE,135,3.0,5.0,70,0.00,,,0.00,meteohub,2013-03-11 02:01:00,
2013-03-10 22:06:00,69.1,58.8,29.99,East,90,2.0,5.0,70,0.00,,,0.00,meteohub,2013-03-11 02:06:00,
2013-03-10 22:11:00,69.1,59.4,29.99,East,90,3.0,5.0,71,0.00,,,0.00,meteohub,2013-03-11 02:11:00,
2013-03-10 22:16:00,69.1,59.4,29.99,East,90,3.0,4.0,71,0.00,,,0.00,meteohub,2013-03-11 02:16:00,
2013-03-10 22:22:00,69.1,59.7,29.99,NE,45,2.0,4.0,72,0.00,,,0.00,meteohub,2013-03-11 02:22:00,
2013-03-10 22:27:00,69.3,59.9,29.99,East,90,4.0,4.0,72,0.00,,,0.00,meteohub,2013-03-11 02:27:00,
2013-03-10 22:32:00,69.6,60.3,29.99,East,90,2.0,4.0,72,0.00,,,0.00,meteohub,2013-03-11 02:32:00,
2013-03-10 22:37:00,69.6,60.3,29.99,East,90,2.0,4.0,72,0.00,,,0.00,meteohub,2013-03-11 02:37:00,
2013-03-10 22:42:00,69.8,60.8,29.99,East,90,2.0,4.0,73,0.00,,,0.00,meteohub,2013-03-11 02:42:00,
2013-03-10 22:47:00,69.8,60.8,29.99,East,90,5.0,5.0,73,0.00,,,0.00,meteohub,2013-03-11 02:47:00,
2013-03-10 22:52:00,70.2,61.2,29.99,East,90,4.0,8.0,73,0.00,,,0.00,meteohub,2013-03-11 02:52:00,
2013-03-10 22:57:00,70.5,61.5,29.99,East,90,5.0,8.0,73,0.00,,,0.00,meteohub,2013-03-11 02:57:00,
2013-03-10 23:02:00,70.5,61.5,30.00,East,90,4.0,8.0,73,0.00,,,0.00,meteohub,2013-03-11 03:02:00,
2013-03-10 23:07:00,70.7,61.7,29.99,East,90,4.0,8.0,73,0.00,,,0.00,meteohub,2013-03-11 03:07:00,
2013-03-10 23:12:00,70.9,61.9,29.99,SE,135,5.0,9.0,73,0.00,,,0.00,meteohub,2013-03-11 03:12:00,
2013-03-10 23:18:00,70.9,61.9,30.00,East,90,4.0,10.0,73,0.00,,,0.00,meteohub,2013-03-11 03:18:00,
2013-03-10 23:23:00,70.9,62.2,29.99,SE,135,6.0,10.0,74,0.00,,,0.00,meteohub,2013-03-11 03:23:00,
2013-03-10 23:28:00,71.1,61.9,29.99,NE,45,10.0,10.0,73,0.00,,,0.00,meteohub,2013-03-11 03:28:00,
2013-03-10 23:33:00,71.1,61.9,29.99,East,90,3.0,11.0,73,0.00,,,0.00,meteohub,2013-03-11 03:33:00,
2013-03-10 23:38:00,71.1,61.9,29.99,East,90,6.0,11.0,73,0.00,,,0.00,meteohub,2013-03-11 03:38:00,
2013-03-10 23:43:00,70.9,62.2,29.99,East,90,8.0,11.0,74,0.00,,,0.00,meteohub,2013-03-11 03:43:00,
2013-03-10 23:48:00,70.9,62.2,29.99,East,90,7.0,11.0,74,0.00,,,0.00,meteohub,2013-03-11 03:48:00,
2013-03-10 23:53:00,70.9,62.2,29.99,NE,45,6.0,9.0,74,0.00,,,0.00,meteohub,2013-03-11 03:53:00,
2013-03-10 23:59:00,70.9,62.2,29.99,NE,45,5.0,11.0,74,0.00,,,0.00,meteohub,2013-03-11 03:59:00,